Погода в Кызылоте

Турция     36°43′07″N   31°34′07″E
темп.,
°C
ветер,
м/с
пор.,
м/с
влажн.,
%
обл.,
%
осадки,
мм/ч
давл.,
гПа
погр.,
м
11 мая, вт
вт1100:00+19ссв33380 0.0 101070
03:00+18св33280 0.0 100968
06:00+17св33280 0.0 100967
09:00+22с11220 0.0 1010246
12:00+24ююз32280 0.0 1010417
15:00+24ю43340 0.0 1009454
18:00+23ю32510 0.0 1008303
21:00+19ю00711 0.0 100911
12 мая, ср
ср1200:00+19ссв11643 0.0 100816
03:00+18сз11575 0.0 100755
06:00+18в22545 0.0 100860
09:00+22юв22440 0.0 1010287
12:00+23ю44551 0.0 1010583
15:00+23ю44555 0.0 1009573
18:00+22ю33582 0.0 1009455
21:00+19зсз01770 0.0 101033
13 мая, чт
чт1300:00+18ссв117570 0.0 101062
03:00+18св1175100 0.0 100959
06:00+17всв11713 0.0 101069
09:00+21юв12570 0.0 1011333
12:00+23ю44585 0.0 1012640
15:00+23ю545847 0.0 1012709
18:00+22ююз33641 0.0 1012551
21:00+19ююв11760 0.0 1013143
14 мая, пт
пт1400:00+18св00750 0.0 1013111
03:00+17с11740 0.0 1012141
06:00+17всв22690 0.0 101374
09:00+21ююв12520 0.0 1013307
12:00+23ю44565 0.0 1014611
15:00+23ююз43575 0.0 1014621
18:00+22юз31610 0.0 1013527
21:00+19з11760 0.0 1013124
15 мая, сб
сб1500:00+18сз11770 0.0 1013121
03:00+18св11780 0.0 101263
06:00+17в11770 0.0 101270
09:00+22ююз11620 0.0 1012298
12:00+23ю32595 0.0 1012455
15:00+24ююз435889 0.0 1011441
18:00+23ю2259100 0.0 1010344
21:00+20вюв1176100 0.0 100929